| time (UTC) | temp F | wind direction | speed MPH | gust MPH | rain 1hr in | rain 24hr in | rain mn in | humidity % | barometer mb |
| 20260505004542 | 64 | 188 | 6.0 | 13.0 | 0.00 | 0.00 | 0.00 | 66 | 1012.4 |
| 20260505003046 | 64 | 165 | 4.0 | 9.0 | 0.00 | 0.00 | 0.00 | 66 | 1012.4 |
| 20260505001546 | 65 | 194 | 5.0 | 11.0 | 0.00 | 0.00 | 0.00 | 65 | 1012.4 |
| 20260505000049 | 66 | 188 | 5.0 | 12.0 | 0.00 | 0.00 | 0.00 | 62 | 1012.2 |
| 20260504234542 | 67 | 204 | 5.0 | 15.0 | 0.00 | 0.00 | 0.00 | 60 | 1012.0 |
| 20260504233047 | 67 | 195 | 7.0 | 15.0 | 0.00 | 0.00 | 0.00 | 59 | 1011.9 |
| 20260504231542 | 68 | 196 | 8.0 | 17.0 | 0.00 | 0.00 | 0.00 | 56 | 1011.7 |
| 20260504230050 | 68 | 360 | 10.0 | 22.0 | 0.00 | 0.00 | 0.00 | 53 | 1011.8 |
| 20260504224547 | 69 | 360 | 10.0 | 21.0 | 0.00 | 0.00 | 0.00 | 51 | 1011.7 |
| 20260504223040 | 73 | 360 | 7.0 | 19.0 | 0.00 | 0.00 | 0.00 | 36 | 1011.8 |
| 20260504221543 | 73 | 360 | 8.0 | 18.0 | 0.00 | 0.00 | 0.00 | 35 | 1011.6 |
| 20260504220049 | 74 | 360 | 8.0 | 14.0 | 0.00 | 0.00 | 0.00 | 33 | 1011.7 |
| 20260504214553 | 74 | 360 | 9.0 | 16.0 | 0.00 | 0.00 | 0.00 | 31 | 1011.8 |
| 20260504213049 | 74 | 360 | 9.0 | 18.0 | 0.00 | 0.00 | 0.00 | 32 | 1011.7 |
| 20260504211542 | 74 | 360 | 10.0 | 20.0 | 0.00 | 0.00 | 0.00 | 32 | 1011.8 |
| 20260504210055 | 74 | 360 | 10.0 | 17.0 | 0.00 | 0.00 | 0.00 | 32 | 1011.8 |
| 20260504204557 | 75 | 360 | 7.0 | 19.0 | 0.00 | 0.00 | 0.00 | 33 | 1011.7 |
| 20260504203044 | 74 | 360 | 11.0 | 19.0 | 0.00 | 0.00 | 0.00 | 32 | 1011.8 |
| 20260504201540 | 74 | 360 | 8.0 | 17.0 | 0.00 | 0.00 | 0.00 | 32 | 1011.8 |
| 20260504200043 | 75 | 360 | 6.0 | 15.0 | 0.00 | 0.00 | 0.00 | 32 | 1011.9 |
| 20260504194542 | 75 | 360 | 7.0 | 15.0 | 0.00 | 0.00 | 0.00 | 32 | 1012.1 |
| 20260504193043 | 75 | 360 | 7.0 | 14.0 | 0.00 | 0.00 | 0.00 | 33 | 1012.3 |
| 20260504191542 | 75 | 251 | 7.0 | 17.0 | 0.00 | 0.00 | 0.00 | 32 | 1012.4 |
| 20260504190041 | 75 | 224 | 3.0 | 16.0 | 0.00 | 0.00 | 0.00 | 32 | 1012.6 |
| 20260504184543 | 75 | 251 | 5.0 | 12.0 | 0.00 | 0.00 | 0.00 | 32 | 1012.7 |
| 20260504183041 | 74 | 238 | 7.0 | 14.0 | 0.00 | 0.00 | 0.00 | 32 | 1012.8 |
| 20260504181541 | 74 | 245 | 8.0 | 12.0 | 0.00 | 0.00 | 0.00 | 31 | 1013.1 |
| 20260504180041 | 73 | 209 | 7.0 | 16.0 | 0.00 | 0.00 | 0.00 | 33 | 1013.0 |
| 20260504174541 | 73 | 212 | 8.0 | 20.0 | 0.00 | 0.00 | 0.00 | 32 | 1013.2 |
| 20260504173051 | 73 | 184 | 6.0 | 17.0 | 0.00 | 0.00 | 0.00 | 32 | 1013.3 |
| 20260504171545 | 73 | 261 | 8.0 | 19.0 | 0.00 | 0.00 | 0.00 | 33 | 1013.4 |
| 20260504081544 | 50 | 264 | 6.0 | 16.0 | 0.00 | 0.00 | 0.00 | 75 | 1016.7 |
| 20260504044546 | 49 | 243 | 4.0 | 8.0 | 0.00 | 0.00 | 0.00 | 58 | 1016.6 |
| 20260504043053 | 49 | 193 | 4.0 | 7.0 | 0.00 | 0.00 | 0.00 | 58 | 1016.6 |
| 20260504041549 | 49 | 190 | 3.0 | 8.0 | 0.00 | 0.00 | 0.00 | 58 | 1016.4 |
| 20260504040046 | 49 | 201 | 4.0 | 7.0 | 0.00 | 0.00 | 0.00 | 57 | 1016.2 |
| 20260504034547 | 49 | 205 | 3.0 | 7.0 | 0.00 | 0.00 | 0.00 | 56 | 1016.1 |
| 20260504033050 | 49 | 196 | 3.0 | 6.0 | 0.00 | 0.00 | 0.00 | 55 | 1016.0 |
| 20260504031544 | 50 | 360 | 3.0 | 6.0 | 0.00 | 0.00 | 0.00 | 55 | 1016.0 |
| 20260504030041 | 50 | 360 | 4.0 | 6.0 | 0.00 | 0.00 | 0.00 | 54 | 1016.0 |
| 20260504024546 | 50 | 194 | 2.0 | 5.0 | 0.00 | 0.00 | 0.00 | 54 | 1016.0 |
| 20260504023042 | 50 | 203 | 3.0 | 7.0 | 0.00 | 0.00 | 0.00 | 53 | 1015.9 |
| 20260504021541 | 50 | 203 | 2.0 | 4.0 | 0.00 | 0.00 | 0.00 | 52 | 1016.0 |
| 20260504020041 | 51 | 203 | 2.0 | 5.0 | 0.00 | 0.00 | 0.00 | 51 | 1016.0 |
| 20260504014543 | 51 | 203 | 2.0 | 6.0 | 0.00 | 0.00 | 0.00 | 51 | 1015.9 |
| 20260504013055 | 52 | 263 | 1.0 | 6.0 | 0.00 | 0.00 | 0.00 | 49 | 1015.7 |
| 20260504011541 | 52 | 263 | 0.0 | 3.0 | 0.00 | 0.00 | 0.00 | 47 | 1015.6 |
| 20260504010043 | 53 | 263 | 2.0 | 4.0 | 0.00 | 0.00 | 0.00 | 47 | 1015.5 |